Location: Buckhorn Peak
(37.6641°N, 120.1241°W)
Time: 03:10:51
(UTC+00:00)

Altair - Pass Details

Date: 13 November 2024
Orbit: 1501 x 1682 km, 47.2° (Epoch: 03 December)

Event Time Altitude Azimuth Distance (km) Brightness Sun altitude
Rises 03:25:00 0° 287° (WNW) 4,666 11.1 -30.5°
Reaches altitude 10° 03:30:08 10° 263° (W) 3,709 10.4 -31.6°
Maximum altitude 03:34:10 14° 237° (WSW) 3,454 9.9 -32.4°
Drops below altitude 10° 03:38:15 10° 211° (SSW) 3,760 9.8 -33.2°
Sets 03:43:36 0° 187° (S) 4,782 10.1 -34.2°
